Details From OMAL - AL AIN INTL
To OOMS - SEEB INTL
Flight Number -
Tags generated
Created
Modified
Stats Distance 155 nm / 287 km
Max Altitude 9,600 ft / 2,926 m
Waypoints 3
Social Downloads 0
Likes 0
Share VATSIM

Download

Looking for another format? Having issues loading an existing format? Contact us
Advertisement - Login to hide

Notes

Basic altitude profile: - Ascent Rate: 2500ft/min - Ascent Speed: 250kts - Cruise Altitude: 35000ft - Cruise Speed: 420kts - Descent Rate: 1500ft/min - Descent Speed: 250kts Options: - Use NATs: no - Use PACOTS: no - Use low airways: yes - Use high airways: no

Route

OMAL DAPOK OOMS

ID Type Via Altitude Latitude Longitude Leg Dist Tot Dist Heading (true) Name
O OMAL APT - 0 ft / 0 m 24.26169˚ 55.60913˚ - 0 nm - AL AIN INTL
DAPOK FIX - 9,600 ft / 2,926 m 23.99889˚ 57.49972˚ 104 nm 104 nm 98° / 99° -
O OOMS APT - 0 ft / 0 m 23.59554˚ 58.29378˚ 49 nm 154 nm 119° / 119° SEEB INTL

Altitude Profile

Advertisement - Login to hide

OMAL

Details ICAO OMAL (AAN)
Name AL AIN INTL
Region United Arab Emirates
Timezone Asia/Dubai (UTC+4.0)
Stats Elevation 869 ft / 265 m (AMSL)
Location 24.261690° 55.609131°
Runways 1
Magnetic Variation 1.865° E

METAR

OMAL 220500Z 17009KT CAVOK 34/05 Q1012 NOSIG

Decode

TAF

Not found

Departure Runways

ID Width Length Bearing (true) Bearing (mag) Surface Threshold Offset Overrun Length
01 148 ft / 45 m 13,176 ft / 4,016 m 7.40° 5.53° Asphalt 0 ft / 0 m 1,312 ft / 400 m
19 148 ft / 45 m 13,176 ft / 4,016 m 187.40° 185.53° Asphalt 0 ft / 0 m 1,080 ft / 329 m

OOMS

Details ICAO OOMS (MCT)
Name SEEB INTL
Region Oman
Timezone Asia/Muscat (UTC+4.0)
Stats Elevation 48 ft / 15 m (AMSL)
Location 23.595536° 58.293781°
Runways 2
Magnetic Variation 1.482° E

METAR

OOMS 220450Z 03006KT 360V060 8000 NSC 34/24 Q1010 NOSIG

Decode

TAF

TAF OOMS 212300Z 2200/2306 25007KT 8000 NSC BECMG 2206/2208 36012KT BECMG 2218/2220 22008KT

Decode

Destination Runways

ID Width Length Bearing (true) Bearing (mag) Surface Threshold Offset Overrun Length
02 98 ft / 30 m 2,498 ft / 761 m 18.94° 17.46° Dirt 0 ft / 0 m 0 ft / 0 m
08 148 ft / 45 m 11,759 ft / 3,584 m 84.98° 83.50° Asphalt 1,375 ft / 419 m 200 ft / 61 m
20 98 ft / 30 m 2,498 ft / 761 m 198.94° 197.46° Dirt 0 ft / 0 m 0 ft / 0 m
26 148 ft / 45 m 11,759 ft / 3,584 m 264.99° 263.51° Asphalt 0 ft / 0 m 200 ft / 61 m

Approach Navaids

Runway Type Ident Frequency Range Bearing (true) Bearing (mag) Slope Elevation
08 Localiser IMW 108.30 MHz 18 nm / 33 km 85.00° 83.52° - 48 ft / 15 m (AMSL)
08 Glidescope IMW 108.30 MHz 10 nm / 19 km 84.98° 83.50° 3.00° 48 ft / 15 m (AMSL)
08 DME IMW 108.30 MHz 18 nm / 33 km - - - 45 ft / 14 m (AMSL)
26 Localiser ISB 110.30 MHz 18 nm / 33 km 264.98° 263.50° - 48 ft / 15 m (AMSL)
26 Glidescope ISB 110.30 MHz 10 nm / 19 km 264.99° 263.50° 3.00° 48 ft / 15 m (AMSL)
26 DME ISB 110.30 MHz 18 nm / 33 km - - - 25 ft / 8 m (AMSL)

Popular Alternatives